Temp
36 36 36 36 37 36 36 38 35 30 32 33 33 39 39 40 42 42 44 44 44 44 44 45 47 50 52 52 53 53 53 53 53 53 53 54 54 55
39 37 36 36 36 36 38 37 37 34 31 34 35 37 39 44 45 43 43 45 44 44 44 44 45 46 49 49 50 51 52 52 52 52 52 52 53 54
35 35 35 37 35 34 34 34 33 33 31 32 35 36 35 36 40 41 43 42 43 44 44 44 44 45 46 47 48 49 49 50 50 50 50 51 53 53
34 34 35 38 33 32 31 31 32 34 31 28 30 32 33 35 35 35 42 46 44 46 45 45 45 45 45 44 44 45 46 46 47 48 49 49 50 51
33 33 33 32 31 31 31 31 32 36 31 29 28 30 31 32 32 35 36 36 42 45 43 43 43 44 44 44 44 44 44 43 43 44 44 45 46 48
31 31 30 30 30 30 31 30 31 29 29 28 27 28 29 31 30 29 29 31 32 40 42 41 42 44 44 44 43 43 43 43 42 42 42 41 41 43
30 30 31 33 36 35 33 31 29 28 27 27 27 26 26 25 25 27 27 27 28 31 32 33 33 34 36 40 42 44 43 43 43 42 42 40 40 41
27 29 29 32 31 33 33 34 33 30 28 27 27 26 26 25 26 25 24 23 21 29 28 26 31 31 33 35 40 41 42 42 43 42 42 41 41 40
26 27 29 33 31 30 31 32 32 33 31 30 28 27 27 27 26 25 24 24 24 29 27 26 24 26 30 37 40 41 41 42 42 42 41 40 40 39
27 27 27 27 27 29 29 28 28 28 29 30 29 29 29 30 29 29 28 26 28 32 28 24 24 26 26 30 38 40 41 41 41 41 41 40 40 39
28 28 28 27 30 32 28 26 27 27 33 34 34 35 35 34 34 32 29 28 26 28 25 26 26 23 24 27 29 37 39 40 40 40 40 40 40 39
25 27 29 28 29 30 27 25 24 26 26 26 27 28 31 30 32 30 28 25 25 24 28 26 24 24 21 24 30 30 30 36 38 39 40 40 40 36
24 24 25 28 29 30 30 27 27 29 28 27 28 27 27 28 29 30 30 29 27 27 31 30 24 23 27 23 23 25 25 25 27 30 38 39 40 39
22 24 25 29 29 29 27 29 29 28 27 27 26 26 27 28 29 31 32 32 33 32 33 32 28 26 23 22 22 24 23 25 23 26 27 34 36 38
24 26 27 28 27 26 27 27 26 26 25 24 25 26 28 29 30 30 32 31 31 32 33 33 32 32 30 27 28 28 25 24 21 21 21 24 29 30
23 24 24 25 24 24 24 25 25 24 24 24 24 26 28 28 27 28 26 25 26 27 29 31 32 32 30 31 31 29 31 27 21 28 29 23 31 33
18 17 20 20 20 21 22 22 23 24 23 23 23 24 25 26 26 25 22 22 22 23 25 27 27 31 32 31 28 29 28 29 25 27 25 31 32 34
16 12 15 17 17 19 18 19 21 21 22 22 22 22 22 23 24 23 21 18 17 20 24 27 29 30 30 30 32 29 30 29 24 25 29 30 31 33
11 11 13 15 16 18 17 18 18 19 20 19 19 19 20 21 23 20 21 22 19 21 25 21 20 18 16 14 27 30 24 22 28 28 27 30 29 32
12 9 13 15 17 17 17 16 17 16 15 16 16 17 17 19 20 21 21 19 18 21 23 22 20 20 18 17 20 21 30 18 21 18 24 26 26 31
10 10 9 15 15 16 14 14 11 11 11 10 13 14 15 18 18 20 18 18 16 20 19 18 20 23 22 18 18 16 14 29 28 24 22 22 24 26
4 8 9 11 11 12 13 11 11 10 10 10 9 10 11 15 16 17 18 15 16 14 16 20 25 25 22 23 18 13 19 24 26 29 29 27 23 21
1 5 4 4 8 10 13 11 10 6 9 9 9 10 9 11 14 14 14 13 15 13 17 18 21 23 22 23 23 13 12 12 16 18 15 28 29 29
MSLP
1021.77 1021.68 1021.72 1021.49 1021.42 1021.27 1021.15 1021.05 1020.82 1020.13 1019.59 1019.33 1019.00 1018.28 1017.87 1017.47 1017.12 1016.89 1016.55 1016.50 1016.56 1016.35 1016.31 1016.05 1016.61 1016.41 1016.56 1016.63 1016.55 1016.47 1016.68 1017.35 1017.64 1017.97 1018.08 1018.05 1018.12 1018.19
1021.46 1021.49 1021.45 1021.37 1021.19 1021.07 1021.00 1020.60 1020.30 1020.18 1019.24 1019.10 1018.64 1018.17 1017.74 1017.28 1016.82 1016.58 1016.43 1016.24 1016.32 1016.33 1016.36 1016.12 1016.39 1016.50 1016.54 1016.68 1016.38 1015.98 1016.16 1016.76 1017.30 1017.66 1017.91 1018.14 1018.19 1018.18
1021.67 1021.71 1021.56 1021.21 1021.34 1020.95 1020.64 1020.41 1020.04 1019.73 1019.29 1018.68 1018.42 1018.03 1017.78 1017.51 1017.07 1016.63 1016.27 1015.99 1015.74 1015.56 1015.87 1016.08 1016.16 1016.22 1016.19 1015.91 1016.20 1015.79 1015.82 1016.00 1016.73 1017.15 1017.53 1017.73 1018.03 1018.19
1021.91 1021.69 1021.49 1021.22 1020.99 1020.64 1020.35 1020.03 1019.64 1019.15 1018.94 1018.50 1018.17 1017.92 1017.70 1017.32 1017.16 1016.91 1016.24 1015.70 1015.47 1015.09 1015.11 1014.79 1015.26 1015.82 1015.65 1015.67 1015.57 1015.59 1015.61 1015.78 1016.21 1016.63 1017.00 1017.25 1017.78 1018.00
1021.93 1021.75 1021.47 1021.10 1020.70 1020.30 1019.94 1019.52 1018.99 1018.43 1018.21 1018.09 1017.80 1017.59 1017.39 1017.18 1017.11 1016.93 1016.64 1016.21 1015.71 1015.23 1015.00 1014.78 1014.76 1014.89 1015.10 1014.99 1015.14 1015.26 1015.11 1015.17 1015.59 1016.05 1016.38 1016.82 1017.40 1017.69
1021.68 1021.48 1021.15 1020.83 1020.43 1019.95 1019.44 1019.04 1018.57 1018.31 1017.94 1017.69 1017.47 1017.34 1017.21 1016.98 1016.96 1016.98 1016.67 1016.39 1016.00 1015.38 1015.09 1014.89 1014.71 1014.62 1014.62 1014.30 1014.58 1014.71 1014.66 1015.06 1015.34 1015.59 1016.09 1016.31 1016.61 1017.13
1021.43 1021.18 1020.87 1020.52 1020.02 1019.54 1019.22 1018.84 1018.54 1018.16 1017.82 1017.59 1017.43 1017.25 1017.09 1016.97 1016.94 1016.78 1016.72 1016.47 1016.13 1015.69 1015.15 1014.88 1014.80 1014.58 1014.36 1014.20 1014.19 1014.31 1014.25 1014.52 1014.85 1015.27 1015.48 1015.57 1015.80 1016.27
1021.12 1020.81 1020.49 1020.08 1019.67 1019.34 1018.88 1018.39 1018.08 1017.69 1017.36 1017.13 1016.89 1016.65 1016.38 1016.36 1016.39 1016.46 1016.41 1016.39 1016.20 1015.24 1015.03 1014.74 1014.64 1014.60 1014.37 1014.15 1014.22 1014.11 1014.14 1014.54 1014.50 1014.64 1015.02 1014.94 1015.11 1015.54
1020.82 1020.46 1020.07 1019.64 1019.31 1018.83 1018.36 1017.88 1017.43 1017.09 1016.73 1016.45 1016.14 1015.93 1015.81 1015.72 1015.80 1015.80 1015.79 1015.78 1015.57 1014.97 1015.13 1014.90 1014.50 1014.54 1014.14 1013.84 1013.71 1013.56 1013.63 1013.86 1013.78 1014.04 1014.15 1014.27 1014.63 1015.00
1020.52 1020.13 1019.73 1019.25 1018.84 1018.35 1017.73 1017.22 1016.86 1016.50 1016.09 1015.73 1015.34 1015.08 1014.95 1014.82 1014.96 1014.94 1014.86 1014.86 1014.66 1014.37 1014.65 1014.58 1014.08 1013.97 1013.69 1013.38 1012.98 1012.97 1013.17 1013.19 1013.26 1013.37 1013.46 1013.86 1014.25 1014.44
1020.26 1019.83 1019.32 1018.83 1018.39 1017.84 1017.30 1016.83 1016.35 1015.79 1015.28 1014.92 1014.58 1014.25 1014.02 1013.97 1014.00 1014.17 1014.00 1013.94 1013.71 1013.55 1013.73 1014.18 1013.39 1013.35 1013.01 1012.77 1012.55 1012.48 1012.50 1012.55 1012.57 1012.69 1012.97 1013.20 1013.34 1013.44
1020.06 1019.55 1019.05 1018.52 1017.89 1017.32 1016.73 1016.12 1015.53 1015.07 1014.79 1014.45 1014.21 1013.88 1013.66 1013.48 1013.31 1013.34 1013.39 1013.40 1013.30 1013.16 1012.29 1013.18 1012.83 1013.16 1012.90 1011.69 1011.55 1011.52 1011.69 1011.67 1011.82 1011.95 1012.07 1012.12 1012.27 1012.63
1019.95 1019.31 1018.73 1018.14 1017.40 1016.73 1016.25 1015.83 1015.11 1014.50 1014.10 1013.81 1013.50 1013.34 1013.16 1012.92 1012.63 1012.44 1012.38 1012.39 1012.23 1012.19 1011.66 1012.03 1012.17 1012.33 1012.53 1012.15 1011.45 1011.18 1011.40 1011.31 1011.38 1011.23 1011.11 1011.17 1011.35 1011.69
1019.87 1019.21 1018.57 1017.80 1017.31 1016.79 1016.29 1015.66 1014.98 1014.35 1013.78 1013.41 1013.13 1012.91 1012.63 1012.23 1011.87 1011.66 1011.46 1011.26 1011.15 1011.17 1010.98 1011.26 1011.33 1011.47 1011.74 1011.69 1011.57 1011.04 1010.86 1010.76 1010.88 1010.88 1010.68 1010.59 1010.75 1010.83
1019.61 1019.04 1018.48 1018.03 1017.56 1017.04 1016.44 1015.89 1015.33 1014.75 1014.28 1013.82 1013.38 1012.96 1012.56 1012.18 1011.77 1011.37 1010.98 1010.67 1010.47 1010.46 1010.39 1010.49 1010.59 1010.67 1010.87 1011.01 1011.00 1011.04 1011.26 1010.88 1010.69 1010.66 1010.66 1010.72 1010.65 1010.60
1019.46 1019.09 1018.73 1018.31 1017.81 1017.35 1016.78 1016.20 1015.67 1015.16 1014.65 1014.21 1013.70 1013.22 1012.72 1012.28 1011.93 1011.59 1011.25 1010.84 1010.69 1010.30 1009.85 1009.75 1009.88 1010.17 1010.28 1010.40 1010.58 1010.68 1010.87 1011.06 1010.50 1010.49 1010.51 1010.38 1010.22 1010.33
1019.59 1019.31 1019.02 1018.59 1018.08 1017.58 1017.15 1016.64 1016.09 1015.54 1015.06 1014.57 1014.06 1013.53 1013.05 1012.57 1012.14 1011.75 1011.60 1011.37 1011.24 1010.93 1010.37 1009.91 1009.63 1009.70 1009.82 1009.82 1009.91 1010.02 1010.22 1010.28 1010.24 1010.19 1010.20 1010.02 1009.70 1009.72
1019.99 1019.95 1019.59 1019.13 1018.65 1018.14 1017.70 1017.21 1016.70 1016.17 1015.74 1015.17 1014.68 1014.19 1013.60 1013.00 1012.49 1012.08 1011.83 1011.67 1011.72 1011.21 1010.80 1010.38 1009.92 1009.60 1009.71 1009.56 1009.63 1009.71 1009.83 1009.81 1009.59 1009.52 1009.48 1009.41 1009.15 1009.04
1020.52 1020.35 1020.04 1019.58 1019.13 1018.71 1018.33 1017.90 1017.45 1017.06 1016.60 1016.01 1015.42 1014.86 1014.24 1013.54 1012.99 1012.64 1012.24 1011.90 1011.74 1011.25 1010.90 1010.64 1010.47 1010.45 1010.41 1010.29 1010.03 1009.94 1010.09 1009.91 1009.63 1009.24 1009.05 1008.91 1008.71 1008.53
1020.97 1020.74 1020.43 1019.97 1019.57 1019.19 1018.87 1018.52 1018.10 1017.69 1017.26 1016.76 1016.15 1015.58 1014.96 1014.28 1013.66 1013.16 1012.86 1012.58 1012.35 1011.85 1011.41 1011.04 1010.84 1010.67 1010.65 1010.35 1010.35 1010.16 1009.87 1010.11 1009.92 1009.51 1009.16 1008.83 1008.53 1008.37
1021.35 1021.08 1020.66 1020.21 1019.95 1019.59 1019.31 1019.00 1018.70 1018.39 1018.01 1017.56 1016.99 1016.43 1015.74 1015.03 1014.39 1013.91 1013.52 1013.11 1012.71 1012.35 1011.98 1011.54 1010.99 1010.46 1010.19 1010.27 1010.43 1010.48 1010.21 1009.85 1009.80 1009.74 1009.50 1009.13 1008.72 1008.35
1021.44 1021.17 1020.73 1020.38 1020.12 1019.84 1019.50 1019.27 1018.94 1018.73 1018.39 1018.02 1017.59 1017.08 1016.47 1015.74 1015.13 1014.59 1014.16 1013.84 1013.37 1012.97 1012.46 1011.67 1010.87 1010.36 1010.23 1010.38 1010.49 1010.66 1010.62 1010.15 1009.86 1009.63 1009.45 1009.25 1009.07 1008.70
1021.19 1020.95 1020.74 1020.48 1020.19 1019.93 1019.68 1019.48 1019.25 1019.14 1018.82 1018.46 1018.03 1017.47 1016.90 1016.26 1015.60 1015.15 1014.72 1014.34 1013.95 1013.37 1012.84 1012.10 1011.38 1010.83 1010.72 1010.66 1010.53 1010.98 1010.74 1010.43 1010.36 1009.95 1009.79 1009.30 1009.03 1008.77
Wind_Speed
5 5 3 4 3 4 4 5 5 7 8 3 3 4 5 4 6 4 1 5 15 14 9 4 15 12 7 9 7 8 8 7 5 3 4 6 7 7
4 4 4 3 4 3 4 4 4 7 10 3 4 4 6 7 8 5 5 2 3 7 10 11 12 16 13 14 11 12 10 9 8 7 6 6 7 8
5 5 5 3 3 4 4 4 4 3 6 3 3 3 3 4 7 5 5 5 4 9 8 9 16 16 19 14 14 12 12 10 9 8 7 8 9 8
5 5 5 7 6 6 4 6 6 7 5 6 4 3 3 4 3 5 7 6 4 9 14 14 12 15 15 13 11 10 11 11 11 11 10 8 8 9
4 5 7 8 8 6 7 6 6 7 4 4 4 3 3 0 2 3 4 4 5 11 8 7 3 5 11 12 12 13 12 12 12 11 11 10 10 11
4 5 6 7 8 8 8 6 5 5 4 4 3 3 3 3 2 3 4 2 5 6 6 7 6 7 6 3 5 9 8 10 10 11 12 11 10 11
5 5 5 9 17 14 7 6 5 4 3 4 3 2 2 2 3 2 4 3 3 4 3 2 2 2 4 6 6 6 7 9 10 11 11 11 10 11
5 6 5 10 9 16 17 17 12 8 8 7 6 7 7 4 3 4 3 2 3 3 2 3 2 4 4 3 8 7 7 10 10 10 12 12 11 12
6 6 7 7 12 9 13 17 14 15 12 8 9 8 8 5 4 4 5 4 4 5 2 4 1 3 4 5 10 11 11 12 10 10 10 11 12 13
6 6 7 9 8 12 11 9 7 7 8 7 8 8 8 8 6 7 9 6 4 7 3 6 3 5 3 5 15 15 16 14 13 13 14 15 16 16
7 7 10 9 14 20 10 10 11 9 9 15 16 17 14 13 11 7 6 6 5 7 4 3 5 3 3 5 6 17 16 16 16 16 16 17 17 17
7 9 15 15 20 21 13 10 9 9 7 8 7 9 10 9 14 8 6 8 6 5 5 6 2 3 4 3 6 6 5 11 12 15 17 17 17 7
7 8 8 19 20 15 16 7 9 10 10 8 7 5 6 7 6 7 8 8 7 7 3 4 3 2 3 3 3 2 3 3 4 4 11 14 15 12
7 8 8 16 18 15 12 16 16 9 5 5 4 5 5 5 5 5 6 7 7 10 5 7 3 4 3 2 3 3 3 3 2 3 3 7 9 11
6 11 14 15 15 10 16 16 10 6 5 4 4 3 3 5 6 4 4 5 4 7 8 8 5 4 4 3 2 2 3 3 1 2 2 2 3 2
6 5 6 8 7 7 7 8 6 6 5 5 4 4 4 3 3 4 2 3 1 2 4 5 8 6 5 7 5 5 5 4 2 2 2 2 2 5
4 3 4 6 6 6 6 7 7 7 6 6 5 5 4 4 3 3 2 2 1 2 3 3 2 6 5 4 3 5 6 5 5 5 2 5 4 6
3 2 3 5 5 6 6 7 6 8 8 7 6 6 6 6 4 3 1 1 1 2 2 2 3 1 1 1 3 3 3 3 3 3 4 6 5 3
2 3 3 4 5 5 6 6 6 7 8 7 6 7 7 6 6 3 3 2 3 2 2 1 2 2 2 1 1 3 1 2 3 3 3 4 3 3
1 2 3 4 5 5 6 6 6 6 6 6 7 7 7 6 6 6 5 3 2 3 3 2 2 0 2 3 2 2 3 1 2 3 2 2 2 1
2 2 2 3 4 4 4 4 4 5 5 5 6 6 7 6 6 6 5 6 4 3 4 3 4 7 3 2 2 3 3 4 2 2 3 2 3 2
2 2 3 2 2 3 3 3 3 4 5 5 5 5 6 6 6 6 5 5 4 2 3 4 6 4 2 1 2 1 2 2 3 3 6 4 2 3
3 3 2 2 2 2 2 3 3 3 4 5 5 5 5 6 6 4 4 3 4 3 3 4 4 3 2 2 1 0 2 2 1 3 4 7 7 6
Wind_Direction
269 268 265 263 251 249 234 237 262 289 294 285 276 283 305 301 270 265 240 67 342 338 326 299 289 283 218 200 194 191 188 205 214 244 307 312 313 326
267 275 277 292 281 271 278 287 261 252 281 221 273 281 291 309 310 256 234 187 212 297 333 276 275 274 222 223 217 204 209 216 226 232 247 271 276 292
20 14 336 327 320 296 308 286 273 251 274 277 246 280 312 330 328 326 262 222 228 233 229 284 250 257 249 230 217 206 202 214 234 235 232 247 249 261
352 346 332 331 309 293 269 274 273 272 237 246 231 238 251 292 306 322 318 314 289 244 234 215 221 250 247 241 226 214 207 209 216 224 225 223 239 247
333 323 315 310 301 292 286 280 268 276 251 243 255 227 237 261 322 313 327 333 336 358 20 24 348 260 239 241 253 229 215 212 211 212 222 215 220 240
308 296 291 288 288 287 286 291 305 301 289 277 270 248 221 252 255 292 300 305 307 314 309 296 313 307 311 327 256 247 233 231 216 207 213 220 217 222
286 281 290 303 310 306 317 308 301 296 292 291 290 266 253 275 252 250 278 274 285 260 275 271 272 326 319 313 290 265 244 229 222 223 221 217 219 226
286 283 276 301 305 311 302 303 294 286 279 270 266 253 254 240 240 237 231 272 290 255 242 283 355 289 275 264 265 266 263 250 237 233 228 224 228 232
282 284 298 305 311 296 292 291 286 280 275 270 268 251 259 234 231 249 236 217 231 256 170 265 237 248 262 267 254 253 254 255 250 244 231 220 222 227
291 291 291 298 290 303 297 292 276 275 268 263 258 255 238 249 224 242 254 242 239 255 181 268 225 243 230 239 245 253 256 245 241 238 238 229 227 232
307 306 305 309 304 312 313 308 292 272 276 281 284 285 276 262 260 263 263 241 247 259 184 204 258 248 216 243 227 243 241 242 243 242 236 233 232 229
313 309 309 316 318 314 299 282 275 276 276 281 279 277 275 269 268 248 244 246 245 288 219 184 217 164 305 270 235 223 222 244 248 249 245 240 238 229
319 316 313 317 317 342 341 314 297 280 275 262 259 264 265 260 253 242 231 227 239 233 217 160 208 175 205 275 282 238 186 247 210 244 250 246 243 230
311 308 300 339 348 349 339 349 353 352 294 283 265 270 271 267 250 241 243 243 228 235 251 210 231 185 186 263 258 333 294 265 187 251 230 252 260 256
304 324 353 353 350 342 345 356 349 342 346 343 340 331 322 331 329 317 281 282 234 237 245 238 215 231 209 214 268 282 353 312 258 224 259 209 219 209
319 324 340 340 330 335 346 344 342 341 343 337 324 318 315 322 317 328 308 320 11 311 289 235 218 215 232 242 249 261 262 273 310 270 243 235 224 259
346 338 352 349 347 351 352 347 348 346 357 346 339 345 339 333 316 312 288 339 19 299 315 321 296 226 230 250 229 226 237 227 227 250 176 252 239 249
4 338 339 341 345 351 352 347 351 354 358 348 347 346 340 331 332 321 334 22 302 299 310 315 342 255 230 279 273 292 282 262 227 227 213 238 241 235
2 322 321 335 348 352 353 349 350 354 348 348 347 345 344 336 351 333 329 344 332 317 325 345 9 69 51 285 9 24 313 301 320 261 221 233 239 263
332 320 332 343 354 352 356 351 350 350 351 346 347 346 346 341 354 356 357 344 332 327 331 333 341 280 158 210 259 255 1 350 340 304 305 316 282 293
295 322 312 350 349 345 341 340 339 347 343 339 346 346 342 345 352 353 350 348 353 346 337 316 287 277 250 49 19 312 298 353 16 328 302 288 271 216
263 291 305 326 323 331 325 336 342 349 350 346 339 333 336 334 349 347 353 348 338 306 278 289 313 325 39 213 257 249 298 297 307 12 25 15 318 322
234 246 278 299 308 317 330 343 340 333 341 337 333 332 330 334 337 328 331 335 335 321 328 319 327 331 353 317 266 267 309 288 270 338 325 4 25 7